Regional Weather Roundup
Issued by NWS Boston, MA

Home | Current Version | Previous Version | Text Only | Print | Product List | Glossary On
Versions: 1 2 3 4 5 6 7 8 9 10 11 12 13 14 15 16 17 18 19 20 21 22 23 24 25 26 27 28 29 30 31 32 33 34 35 36 37 38 39 40 41 42 43 44 45 46 47 48 49 50
000
ASUS41 KBOX 300810
RWRBOX

REGIONAL WEATHER ROUNDUP
NATIONAL WEATHER SERVICE TAUNTON MA
400 AM EDT TUE JUN 30 2015

NOTE:  "FAIR" INDICATES FEW OR NO CLOUDS BELOW 12,000 FEET WITH NO
SIGNIFICANT WEATHER AND/OR OBSTRUCTIONS TO VISIBILITY.  THE FOLLOWING
OBSERVATION LOCATIONS DO NOT REPORT PRESENT WEATHER...PROVINCETOWN...
SMITHFIELD...BLOCK ISLAND...KEENE...AND OXFORD.

MAZALL-300900-
EASTERN MASSACHUSETTS

CITY           SKY/WX    TMP DP  RH WIND       PRES   REMARKS
BOSTON         CLEAR     61  59  93 S6        29.97R
BEVERLY        CLEAR     60  56  86 W3        29.95R
LAWRENCE       CLEAR     60  57  89 S3        29.98R
BEDFORD        CLEAR     57  56  96 CALM      29.96R
BLUE HILL        N/A     59  58  96 SW8       29.97R
NORWOOD        FOG       54  53  97 CALM      29.97R VSB 1
MARSHFIELD     CLEAR     61  61 100 CALM      29.99R
PLYMOUTH       CLEAR     56  56 100 CALM      29.98S FOG
TAUNTON        PTCLDY    55  53  93 CALM      29.97R FOG
NEW BEDFORD    PTCLDY    56  55  97 CALM      29.97R FOG
$$

MAZALL-300900-
CAPE COD AND THE ISLANDS

CITY           SKY/WX    TMP DP  RH WIND       PRES   REMARKS
FALMOUTH       MOCLDY    61  61 100 CALM      29.98S
HYANNIS        CLEAR     61  60  97 SW3       29.97R
CHATHAM        CLEAR     64  63  96 SW5       29.99R
PROVINCETOWN   CLEAR     59   3  10 SW8       29.98R
NANTUCKET      PTCLDY    65  62  90 W8        29.99S
MARTHAS VNYRD  CLEAR     59  58  96 S6        29.99R FOG
$$

MAZALL-300900-
CENTRAL AND WESTERN MASSACHUSETTS

CITY           SKY/WX    TMP DP  RH WIND       PRES   REMARKS
WORCESTER      CLEAR     60  55  83 W6        29.98S
FITCHBURG      PTCLDY    56  54  93 CALM      29.98R
ORANGE         MOCLDY    55  54  96 CALM      29.98R
SPRINGFIELD    NOT AVBL
WESTFIELD      PTCLDY    55  54  96 CALM      29.98R
NORTH ADAMS    PTCLDY    53  52  96 CALM      29.98R FOG
PITTSFIELD     FOG       52  52 100 CALM      29.98R VSB 1/4
$$

RIZALL-300900-
RHODE ISLAND

CITY           SKY/WX    TMP DP  RH WIND       PRES   REMARKS
PROVIDENCE     CLEAR     61  58  90 CALM      29.98R
NEWPORT        PTCLDY    61  60  97 CALM      29.98R
BLOCK ISLAND   PTCLDY    64  61  88 SW9       29.98S
SMITHFIELD     CLEAR     55  50  82 CALM      29.98R
WESTERLY       PTCLDY    59  57  93 CALM      29.98R
$$

CTZALL-300900-
CONNECTICUT

CITY           SKY/WX    TMP DP  RH WIND       PRES   REMARKS
BRADLEY INTL   PTCLDY    57  55  93 NW3       29.96S
HARTFORD       MOCLDY    61  59  93 SE8       29.96S
BRIDGEPORT     PTCLDY    66  61  84 CALM      29.96S
DANBURY        CLOUDY    64  57  78 CALM      29.97S
GROTON         CLEAR     59  57  93 CALM      29.97S
NEW HAVEN      PTCLDY    62  59  90 CALM      29.96S
CHESTER        NOT AVBL
MERIDEN        CLOUDY    62  59  90 CALM      29.96S
WILLIMANTIC    CLOUDY    57  55  93 CALM      29.98S FOG
OXFORD         CLOUDY    63  55  77 CALM      29.98S
$$

MEZ002-015-021-024-NHZ003-005-008-011-012-014-VTZ005-008-300900-
NORTHERN NEW ENGLAND

CITY           SKY/WX    TMP DP  RH WIND       PRES   REMARKS
PORTLAND ME    CLOUDY    63  60  90 W3        29.93R
BANGOR ME      MOCLDY    57  56  96 S5        29.93S
CONCORD NH     CLEAR     55  53  93 CALM      29.96R
MANCHESTER NH  MOCLDY    61  58  90 S3        29.95R
NASHUA NH      CLOUDY    60  58  93 CALM      29.97R
PORTSMOUTH NH  PTCLDY    59  57  94 SW5       29.94R
JAFFREY NH     CLOUDY    54  53  97 S3        29.99R
KEENE NH       CLEAR     55  52  88 CALM      29.98R
BURLINGTON VT  PTCLDY    56  53  90 CALM      29.95R
MT. WASHINGTON FOG       41  41 100 NW13        N/A  VSB 1/16
$$

NYZ052-076-300900-
EASTERN NEW YORK

CITY           SKY/WX    TMP DP  RH WIND       PRES   REMARKS
ALBANY         PTCLDY    60  56  86 CALM      29.96S
NEW YORK CITY  PTCLDY    71  57  61 CALM      29.95S
$$

ANZALL-300900-
MARINE OBSERVATIONS

STATION/POSITION TIME  TEMP    WIND        PRES    VSBY  WAVE
                       AIR SEA DIR/SP/G                  HT/PER
                 (UTC) (F)     (DEG/KT/KT) (MB)    (MI)  (FT/S)
BOSTON BUOY      0750   61 60  220/  8/  8 1014.9R         3/ 9
BUZZARDS BAY     0700          240/ 10/ 10 1015.7R
NANTUCKET SOUND  0750   66 63  240/ 10/ 10 1015.3R         1/ 3
MASS BAY-STELLWA 0704   60 58  210/  8/  8 1013.3R  1 7/8  3/ 8
ISLE OF SHOALS   0800   64     260/ 11/ 11 1013.6R
S OF BLOCK IS    0708      65                N/A           5/ 8
$$

......................KEY.........................
  SKY/WX - SKY CONDITION/PRESENT WEATHER
  TMP    - TEMPERATURE IN FAHRENHEIT
  DWPT   - DEWPOINT IN FAHRENHEIT
  RH     - RELATIVE HUMIDITY IN PERCENT
  WIND   - DIRECTION AND SPEED IN MPH
  PRES   - MEAN SEA LEVEL PRESSURE IN INCHES OF HG
  WCI    - WIND CHILL INDEX
  VSB    - VISIBILITY IN MILES
  HX     - HEAT INDEX
  TC     - TEMPERATURE IN CELSIUS
  VRB    - VARIABLE WIND DIRECTION
  N/A    - NOT AVAILABLE


USA.gov is the U.S. government's official web portal to all federal, state and local government web resources and services.